Greenville, AL

10:05 AM CST on November 21, 2017 (GMT -0600)
Greenville Municipal

Weather History for KPRN - May, 2012

Change the Weather History Date:

Monday, May 28, 2012

  Actual Average Record
Temperature  
Mean Temperature 80 °F -  
Max Temperature 91 °F 87 °F 97 °F (1953)
Min Temperature 69 °F 63 °F 47 °F (1961)
Cooling Degree Days 15    
Growing Degree Days 30 (Base 50)    
Moisture  
Dew Point 66 °F    
Average Humidity 62    
Maximum Humidity 84    
Minimum Humidity 41    
Precipitation  
Precipitation 0.00 in - - ()
Sea Level Pressure  
Sea Level Pressure 29.89 in    
Wind  
Wind Speed 4 mph (NNE)    
Max Wind Speed 12 mph    
Max Gust Speed 17 mph    
Visibility 10 miles    
Events Rain , Hail    
Averages and records for this station are not official NWS values.
T = Trace of Precipitation, MM = Missing Value Source: NWS Daily Summary

Daily Weather History Graph

Daily Weather History Graph

Search for Another Location

Airport or City:

Trip Planner

Search our weather history database for the weather conditions in past years. The results will help you decide how hot, cold, wet, or windy it might be!

Date:

Astronomy

May. 28, 2012 Rise Set
Actual Time 5:42 AM CDT 7:45 PM CDT
Civil Twilight 5:14 AM CDT 8:12 PM CDT
Nautical Twilight 4:41 AM CDT 8:46 PM CDT
Astronomical Twilight 4:05 AM CDT 9:22 PM CDT
Moon 12:34 PM CDT (5/28) 12:37 AM CDT (5/28)
Length of Visible Light 14h 57m
Length of Day
14h 02m
Waxing Crescent, 49% of the Moon is Illuminated
May 28
Waxing Crescent
May 28
First Quarter
Jun 4
Full
Jun 11
Last Quarter
Jun 19
New

Hourly Weather History & Observations

Time (CDT) Temp. Heat Index Dew Point Humidity Pressure Visibility Wind Dir Wind Speed Gust Speed Precip Events Conditions
12:56 AM 73.0 °F - 68.0 °F 84% 29.92 in 10.0 mi North 4.6 mph - N/A   Clear
1:56 AM 73.0 °F - 66.9 °F 81% 29.91 in 10.0 mi Calm Calm - N/A   Clear
2:56 AM 73.0 °F - 66.0 °F 79% 29.90 in 10.0 mi NNE 3.5 mph - N/A   Clear
3:15 AM - - - N/A% - - North - - N/A Hail Hail
3:56 AM 73.0 °F - 64.0 °F 73% 29.91 in 10.0 mi Calm Calm - N/A   Clear
4:56 AM 72.0 °F - 64.0 °F 76% 29.92 in 10.0 mi Calm Calm - N/A   Clear
5:56 AM 69.1 °F - 64.0 °F 84% 29.93 in 10.0 mi Calm Calm - N/A   Clear
6:56 AM 72.0 °F - 64.9 °F 78% 29.95 in 10.0 mi Calm Calm - N/A   Clear
7:56 AM 78.1 °F - 66.0 °F 66% 29.95 in 10.0 mi NNE 5.8 mph - N/A   Clear
8:30 AM - - - N/A% - - North - - N/A Hail Hail
8:56 AM 80.1 °F 82.1 °F 66.0 °F 62% 29.95 in 10.0 mi East 8.1 mph - N/A   Clear
9:56 AM 82.9 °F 85.0 °F 66.0 °F 56% 29.93 in 10.0 mi NE 9.2 mph - 0.00 in   Clear
10:56 AM 86.0 °F 88.8 °F 66.9 °F 53% 29.93 in 10.0 mi ENE 4.6 mph - N/A   Clear
11:56 AM 88.0 °F 89.6 °F 64.9 °F 46% 29.92 in 10.0 mi NNE 9.2 mph - N/A   Clear
12:56 PM 88.0 °F 90.3 °F 66.0 °F 48% 29.90 in 10.0 mi NNE 11.5 mph - N/A   Partly Cloudy
1:56 PM 89.1 °F 92.1 °F 66.9 °F 48% 29.88 in 10.0 mi North 11.5 mph - N/A   Partly Cloudy
2:56 PM 91.0 °F 94.3 °F 66.9 °F 45% 29.87 in 10.0 mi North 10.4 mph - N/A   Clear
3:56 PM 91.0 °F 93.8 °F 66.0 °F 44% 29.84 in 10.0 mi North 10.4 mph 17.3 mph N/A   Clear
4:56 PM 91.0 °F 92.6 °F 64.0 °F 41% 29.83 in 10.0 mi North 11.5 mph - N/A   Clear
5:56 PM 90.0 °F 91.7 °F 64.9 °F 43% 29.83 in 10.0 mi North 8.1 mph - N/A   Clear
6:56 PM 88.0 °F 90.7 °F 66.9 °F 49% 29.83 in 10.0 mi North 4.6 mph - N/A   Clear
7:56 PM 84.9 °F 88.2 °F 68.0 °F 57% 29.85 in 10.0 mi Calm Calm - N/A   Clear
8:56 PM 80.1 °F 82.7 °F 68.0 °F 67% 29.86 in 10.0 mi East 4.6 mph - N/A   Clear
9:56 PM 78.1 °F - 68.0 °F 71% 29.88 in 10.0 mi NE 4.6 mph - N/A   Clear
10:56 PM 77.0 °F - 68.0 °F 74% 29.86 in 10.0 mi Calm Calm - 0.00 in Rain Light Rain
11:56 PM 75.9 °F - 66.9 °F 74% 29.86 in 10.0 mi ENE 4.6 mph - 0.00 in Rain Light Rain